Date String (YYYY-MM-DD hh:mm:ss) UTC,Instrument flags,absolute air pressure of the measurement (hPa),sample flow rate (lpm),inlet stack bypass flow (lpm),air temperature of the measurement (°C),ambient temperature measured by the external sensor (°C),aerosol sample conditioner tube jacket temperature (°C),OPC LED temperature (°C),internal box temperature (°C),relative humidity of the measurement (%),span deviation,mass concentration of particles derived from Lorenz-Mie calculation of OPC scattering (μg/m³),mass concentration of particles derived from Lorenz-Mie calculation of OPC scattering (μg/m³),mass concentration of particles derived from Lorenz-Mie calculation of OPC scattering (μg/m³)
DateTimeUTC,F1_M11,P_M11,Q1_M11,Q2_M11,T1_M11,T2_M11,T3_M11,T4_M11,T5_M11,U1_M11,ZSPAN_M11,X2_M11,X0_M11,X1_M11
2023-07-14 14:00:00,SystemResetWarning,0832.6,5.00,000.00,029.6,028.5,000.0,038.1,031.3,28.4,0000.0,0006.38,0018.90,0004.97
2023-07-14 14:01:00,SystemResetWarning,0832.7,5.00,000.00,029.7,028.0,000.0,038.0,031.3,29.1,0000.0,0006.36,0019.34,0004.95
2023-07-14 14:02:00,SystemResetWarning,0832.7,4.99,000.00,029.6,026.1,000.0,037.9,031.1,29.9,0001.3,0006.43,0019.40,0004.96
2023-07-14 14:03:00,SystemResetWarning,0832.7,5.01,000.00,029.5,025.1,000.0,037.8,030.8,29.6,0001.6,0006.41,0019.71,0004.95
2023-07-14 14:04:00,SystemResetWarning,0832.7,5.01,000.00,029.4,025.2,000.0,037.8,030.6,30.4,0001.2,0006.35,0019.78,0004.93
2023-07-14 14:05:00,SystemResetWarning,0832.7,4.99,000.00,029.3,025.6,000.0,037.8,030.6,29.5,0000.0,0006.35,0019.54,0004.94
2023-07-14 14:06:00,SystemResetWarning,0832.7,5.00,000.00,029.3,026.0,000.0,037.8,030.6,29.8,0000.0,0006.30,0017.66,0004.92
2023-07-14 14:07:00,SystemResetWarning,0832.8,5.01,000.00,029.3,026.4,000.0,037.8,030.7,28.9,0000.0,0006.30,0017.22,0004.92
2023-07-14 14:08:00,SystemResetWarning,0832.8,5.01,000.00,029.3,026.8,000.0,037.8,030.8,28.5,0000.0,0006.32,0017.56,0004.91
2023-07-14 14:09:00,SystemResetWarning,0832.7,4.99,000.00,029.3,027.1,000.0,037.8,030.8,28.9,0000.0,0006.34,0017.35,0004.91
2023-07-14 14:10:00,SystemResetWarning,0832.8,4.99,000.00,029.3,027.4,000.0,037.9,030.9,28.6,0000.0,0006.35,0016.46,0004.91
2023-07-14 14:11:00,SystemResetWarning,0832.9,5.00,000.00,029.3,027.6,000.0,037.9,031.0,28.5,0000.0,0006.34,0017.04,0004.91
2023-07-14 14:12:00,SystemResetWarning,0832.9,5.00,000.00,029.4,027.8,000.0,037.9,031.0,28.7,0000.8,0006.34,0017.02,0004.91
2023-07-14 14:13:00,SystemResetWarning,0833.2,5.00,000.00,029.4,028.0,000.0,037.9,031.0,29.8,0000.0,0006.31,0016.65,0004.89
2023-07-14 14:14:00,SystemResetWarning,0833.3,5.00,000.00,029.4,028.1,000.0,037.9,031.1,29.1,0000.0,0006.35,0018.05,0004.89
2023-07-14 14:15:00,SystemResetWarning,0833.0,5.01,000.00,029.5,028.2,000.0,037.9,031.1,28.9,0000.0,0006.36,0018.34,0004.88
2023-07-14 14:16:00,SystemResetWarning,0833.0,5.01,000.00,029.5,028.3,000.0,037.9,031.2,28.9,0000.0,0006.35,0018.36,0004.88
2023-07-14 14:17:00,SystemResetWarning,0833.2,4.99,000.00,029.5,028.4,000.0,038.0,031.2,29.3,0000.0,0006.36,0020.52,0004.87
2023-07-14 14:18:00,SystemResetWarning,0833.2,4.99,000.00,029.6,027.1,000.0,037.8,031.1,29.6,0000.0,0006.34,0021.20,0004.86
2023-07-14 14:19:00,SystemResetWarning,0833.3,5.01,000.00,029.5,025.5,000.0,037.7,030.8,29.5,0000.0,0006.31,0022.05,0004.86
2023-07-14 14:20:00,SystemResetWarning,0833.3,5.01,000.00,029.4,025.1,000.0,037.7,030.7,29.1,0000.0,0006.29,0021.59,0004.86
2023-07-14 14:21:00,SystemResetWarning,0833.2,5.01,000.00,029.3,025.5,000.0,037.7,030.5,28.7,0000.0,0006.35,0021.97,0004.86
2023-07-14 14:22:00,SystemResetWarning,0833.0,5.00,000.00,029.2,025.9,000.0,037.7,030.6,29.5,0000.0,0006.32,0021.68,0004.85
2023-07-14 14:23:00,SystemResetWarning,0833.0,5.00,000.00,029.2,026.3,000.0,037.7,030.6,30.0,0000.0,0006.31,0021.57,0004.86
2023-07-14 14:24:00,SystemResetWarning,0833.2,5.01,000.00,029.2,026.7,000.0,037.8,030.7,28.9,0000.0,0006.31,0021.97,0004.86
2023-07-14 14:25:00,SystemResetWarning,0833.1,4.99,000.00,029.2,027.0,000.0,037.8,030.8,28.9,0000.0,0006.21,0019.90,0004.86
2023-07-14 14:26:00,SystemResetWarning,0833.1,4.99,000.00,029.3,027.3,000.0,037.8,030.8,29.8,0000.0,0006.23,0019.30,0004.86
2023-07-14 14:27:00,SystemResetWarning,0833.1,5.00,000.00,029.3,027.5,000.0,037.8,030.9,29.9,-000.5,0006.23,0019.79,0004.87
2023-07-14 14:28:00,SystemResetWarning,0833.2,5.00,000.00,029.3,027.7,000.0,037.8,030.9,28.5,-000.9,0006.20,0018.73,0004.86
2023-07-14 14:29:00,SystemResetWarning,0833.2,5.00,000.00,029.3,027.9,000.0,037.8,031.0,29.1,-000.4,0006.21,0018.06,0004.87
2023-07-14 14:30:00,SystemResetWarning,0833.2,5.01,000.00,029.4,028.1,000.0,037.8,031.0,29.6,-000.3,0006.24,0016.26,0004.87
2023-07-14 14:31:00,SystemResetWarning,0833.2,5.00,000.00,029.4,028.2,000.0,037.8,031.1,28.7,-000.3,0006.27,0016.76,0004.88
2023-07-14 14:32:00,SystemResetWarning,0833.2,4.99,000.00,029.5,028.3,000.0,037.9,031.1,29.1,-000.1,0006.22,0016.86,0004.88
2023-07-14 14:33:00,SystemResetWarning,0833.3,4.99,000.00,029.5,028.3,000.0,037.9,031.2,29.3,-000.0,0006.28,0017.76,0004.87
2023-07-14 14:34:00,SystemResetWarning,0833.2,4.99,000.00,029.5,027.2,000.0,037.8,031.0,28.9,-000.1,0006.27,0018.18,0004.86
2023-07-14 14:35:00,SystemResetWarning,0833.2,5.00,000.00,029.4,025.6,000.0,037.7,030.7,29.7,0000.0,0006.29,0018.86,0004.86
2023-07-14 14:36:00,SystemResetWarning,0833.2,5.01,000.00,029.3,025.3,000.0,037.6,030.6,29.8,0000.0,0006.40,0020.15,0004.86
2023-07-14 14:37:00,SystemResetWarning,0833.2,5.01,000.00,029.3,025.6,000.0,037.6,030.5,30.2,-000.6,0006.41,0021.10,0004.85
2023-07-14 14:38:00,SystemResetWarning,0833.3,5.00,000.00,029.2,026.0,000.0,037.7,030.5,30.7,0000.0,0006.42,0021.40,0004.85
2023-07-14 14:39:00,SystemResetWarning,0833.3,5.00,000.00,029.2,026.4,000.0,037.7,030.6,30.7,0000.0,0006.42,0020.37,0004.84
2023-07-14 14:40:00,SystemResetWarning,0833.3,5.00,000.00,029.2,026.7,000.0,037.7,030.7,30.3,0000.0,0006.40,0020.10,0004.84
2023-07-14 14:41:00,SystemResetWarning,0833.4,4.99,000.00,029.2,027.1,000.0,037.7,030.7,30.6,0000.0,0006.37,0021.03,0004.83
2023-07-14 14:42:00,SystemResetWarning,0833.4,5.00,000.00,029.2,027.3,000.0,037.7,030.8,31.4,0000.0,0006.33,0020.96,0004.83
2023-07-14 14:43:00,SystemResetWarning,0833.4,5.00,000.00,029.3,027.6,000.0,037.7,030.9,30.7,0000.0,0006.26,0020.32,0004.81
2023-07-14 14:44:00,SystemResetWarning,0833.4,5.01,000.00,029.3,027.8,000.0,037.8,030.9,30.9,0000.0,0006.23,0019.95,0004.82
2023-07-14 14:45:00,SystemResetWarning,0833.4,5.00,000.00,029.3,027.9,000.0,037.8,031.0,31.5,0000.0,0006.20,0019.38,0004.82
2023-07-14 14:46:00,SystemResetWarning,0833.4,4.99,000.00,029.4,028.1,000.0,037.8,031.0,31.2,0000.0,0006.17,0018.41,0004.82
2023-07-14 14:47:00,SystemResetWarning,0833.5,4.99,000.00,029.4,028.2,000.0,037.8,031.1,31.4,0000.0,0006.13,0017.79,0004.84
2023-07-14 14:48:00,SystemResetWarning,0833.5,4.99,000.00,029.4,028.2,000.0,037.8,031.1,31.1,0000.0,0006.14,0018.24,0004.85
2023-07-14 14:49:00,SystemResetWarning,0833.5,4.99,000.00,029.4,027.0,000.0,037.7,031.0,31.0,0000.0,0006.14,0017.57,0004.85
2023-07-14 14:50:00,SystemResetWarning,0833.5,5.00,000.00,029.4,025.4,000.0,037.6,030.7,31.5,0000.0,0006.15,0018.15,0004.87
2023-07-14 14:51:00,SystemResetWarning,0833.5,5.01,000.00,029.3,025.2,000.0,037.6,030.5,32.1,0000.0,0006.13,0019.14,0004.87
2023-07-14 14:52:00,SystemResetWarning,0833.5,5.01,000.00,029.2,025.5,000.0,037.6,030.4,31.7,-000.5,0006.19,0018.44,0004.89
2023-07-14 14:53:00,SystemResetWarning,0833.5,4.99,000.00,029.1,025.9,000.0,037.6,030.5,32.0,0000.0,0006.22,0017.82,0004.91
2023-07-14 14:54:00,SystemResetWarning,0833.6,5.00,000.00,029.1,026.3,000.0,037.6,030.6,32.2,-000.0,0006.31,0018.31,0004.94
2023-07-14 14:55:00,SystemResetWarning,0833.6,5.00,000.00,029.1,026.7,000.0,037.7,030.6,33.0,0000.0,0006.39,0019.66,0004.96
2023-07-14 14:56:00,SystemResetWarning,0833.6,5.00,000.00,029.2,027.0,000.0,037.7,030.7,33.0,0000.0,0006.49,0022.02,0005.00
2023-07-14 14:57:00,SystemResetWarning,0833.7,5.00,000.00,029.2,027.3,000.0,037.7,030.8,32.7,0000.0,0006.54,0023.26,0005.03
2023-07-14 14:58:00,SystemResetWarning,0833.7,5.00,000.00,029.2,027.5,000.0,037.7,030.8,33.3,0000.0,0006.58,0024.26,0005.05
2023-07-14 14:59:00,SystemResetWarning,0833.7,5.00,000.00,029.2,027.7,000.0,037.7,030.9,33.5,-001.8,0006.62,0023.32,0005.06
